Simultaneous Nadir Overpasses (SNOs) Predictions

Prediction of SNOs between TERRA and METOP-C Satellite Orbit:

Table of predicted SNOs for the next 14.0 days since TLE Epoch: 7/3/2021
Index Date (TERRA) Time (TERRA) Lat,Lon (TERRA) SZA (TERRA ) Date (METOP-C) Time (METOP-C) Lat,Lon (METOP-C) SZA (METOP-C ) Distance(km) Time Diff (sec)
1 07/04/2021 21:09:22 81.30, -91.37 61.16 07/04/2021 21:08:44 81.30, -91.39 61.14 0.90 38
2 07/04/2021 21:58:49 -81.30, 76.18 118.85 07/04/2021 21:59:25 -81.30, 76.18 118.83 0.19 36
3 07/07/2021 16:43:35 81.28, -25.29 61.38 07/07/2021 16:43:06 81.29, -25.30 61.37 0.79 29
4 07/07/2021 17:33:01 -81.30, 142.67 118.57 07/07/2021 17:33:46 -81.30, 142.66 118.55 0.20 45
5 07/10/2021 12:17:46 81.30, 41.51 61.76 07/10/2021 12:17:26 81.30, 41.56 61.76 1.06 20
6 07/10/2021 13:07:13 -81.30,-150.88 118.24 07/10/2021 13:08:07 -81.30,-150.88 118.22 0.09 54
7 07/13/2021 07:51:57 81.30, 107.88 62.13 07/13/2021 07:51:46 81.30, 108.02 62.14 2.30 11
8 07/13/2021 08:41:24 -81.30, -84.48 117.87 07/13/2021 08:42:27 -81.30, -84.44 117.84 0.82 63
9 07/16/2021 02:36:59 -80.91, 0.83 118.37 07/16/2021 02:35:45 -81.11, 0.22 118.30 25.05 74
10 07/16/2021 03:26:09 81.29, 174.22 62.54 07/16/2021 03:26:08 81.29, 174.08 62.52 2.38 1



Historial Predications of SNOs between TERRA and METOP-C
